#timestamp,LO_Frequency,Hit,StdDev 
1551560415.7,286047002.5,N
1551560435.5,286047003.9,Y
1551560455.3,286047004.4,P
1551560475.2,286046999.8,N
1551560495.0,286047000.1,N
1551560495.9,286047000.1,N
1551560515.8,286047000.1,N
1551560535.6,286047000.0,N
1551560555.4,286047002.2,N
1551560575.3,286047001.7,N
1551560595.1,286047002.7,N
1551560615.8,286047002.1,N
1551560635.7,286047002.4,N
1551560655.5,286047004.4,Y
1551560675.4,286047000.3,P
1551560695.2,286047000.4,N
1551560715.0,286046998.1,P
1551560715.9,286046998.1,N
1551560735.8,286046999.3,N
1551560755.6,286046994.9,Y
1551560775.5,286046997.8,P
1551560795.3,286046999.1,N
1551560815.1,286046998.2,N
1551560835.9,286046998.8,N
1551560855.7,286047001.1,N
1551560875.5,286046999.6,N
1551560895.4,286047001.1,N
1551560915.2,286046998.4,N
1551560935.1,286046998.4,N
1551560936.0,286046998.4,N
1551560955.8,286047000.7,N
1551560975.6,286047000.4,N
1551560995.5,286047001.4,N
1551561015.3,286047003.1,N
1551561035.2,286047000.4,N
1551561055.9,286046999.6,N
1551561075.7,286046999.7,N
1551561095.6,286047000.9,N
1551561115.4,286046999.3,N
1551561135.2,286046998.0,N
1551561155.1,286046999.4,N
1551561156.0,286046999.4,N
1551561175.8,286047000.5,N
1551561195.7,286047001.8,N
1551561215.5,286046998.1,N
1551561235.3,286046998.6,N
1551561255.2,286047000.6,N
1551561275.9,286046998.1,N
1551561295.7,286047000.9,N
1551561315.6,286047000.5,N
1551561335.4,286046999.8,N
1551561355.3,286046999.8,N
1551561375.1,286046998.2,N
1551561376.0,286046998.2,N
1551561395.8,286046996.6,N
1551561415.7,286046999.3,N
1551561435.5,286046997.3,N
1551561455.3,286046997.4,N
1551561475.2,286046996.7,N
1551561495.0,286046996.5,N
1551561495.9,286046996.5,N
1551561515.8,286046997.6,N
1551561535.6,286046998.7,N
1551561555.4,286046996.7,N
1551561575.3,286046998.8,N
1551561595.1,286046999.2,N
1551561615.8,286046998.2,N
1551561635.7,286046996.9,N
1551561655.5,286046998.3,N
1551561675.4,286046998.1,N
1551561695.2,286047000.1,N
1551561715.0,286046999.8,N
1551561715.9,286046999.8,N
1551561735.8,286047002.7,N
1551561755.6,286047002.5,N
1551561775.4,286047001.8,N
1551561795.3,286047004.2,N
1551561815.1,286047000.1,N
1551561835.9,286047001.4,N
1551561855.7,286046999.8,N
1551561875.5,286046999.1,N
1551561895.4,286046998.2,N
1551561915.2,286046998.9,N
1551561935.0,286047000.8,N
1551561936.0,286047000.8,N
1551561955.8,286047002.8,N
1551561975.6,286047001.6,N
1551561995.5,286047001.3,N
1551562015.3,286047003.3,N
1551562035.2,286047003.8,N
1551562055.9,286047002.0,N
1551562075.7,286046999.4,N
1551562095.6,286046998.7,N
1551562115.4,286046998.2,N
1551562135.2,286046999.5,N
1551562155.1,286046996.7,N
1551562156.0,286046996.7,N
1551562175.8,286046997.8,N
1551562195.7,286046998.8,N
1551562215.5,286046998.7,N
1551562235.3,286046999.9,N
1551562255.2,286046996.6,N
1551562275.0,286047001.1,N
1551562275.9,286047001.1,N
1551562295.8,286047000.5,N
1551562315.6,286047000.0,N
1551562335.4,286047001.0,N
1551562355.3,286046998.2,N
1551562375.1,286046999.1,N
1551562395.9,286046998.7,N
1551562415.7,286047000.7,N
1551562435.5,286046999.4,N
1551562455.4,286046997.4,N
1551562475.2,286046997.7,N
1551562495.0,286046999.5,N
1551562495.9,286046999.5,N
1551562515.8,286047000.5,N
1551562535.6,286047000.3,N
1551562555.5,286046999.8,N
1551562575.3,286047000.4,N
1551562595.1,286046998.4,N
1551562615.9,286046998.9,N
1551562635.7,286047002.8,N
1551562655.5,286046998.2,N
1551562675.4,286046998.5,N
1551562695.2,286047000.3,N
1551562715.1,286047000.5,N
1551562716.0,286047000.5,N
1551562735.8,286047001.2,N
1551562755.6,286047000.2,N
1551562775.5,286047000.1,N
1551562795.3,286047001.0,N
1551562815.1,286047002.4,N
1551562835.9,286047004.4,Y
1551562855.7,286047003.9,P
1551562875.6,286046999.9,N
1551562895.4,286047000.2,N
1551562915.2,286046998.1,N
1551562935.1,286047001.1,N
1551562936.0,286047001.1,N
1551562955.8,286046996.5,N
1551562975.7,286046998.1,N
1551562995.5,286047000.6,N
1551563015.3,286047000.5,N
1551563035.2,286047001.9,N
1551563055.9,286047004.0,N
1551563075.7,286047004.1,N
1551563095.6,286047002.1,N
1551563115.4,286047000.5,N
1551563135.3,286046999.7,N
1551563155.1,286047000.6,N
1551563175.6,286047002.8,N
1551563195.4,286047002.1,N
1551563215.2,286047003.8,N
1551563235.1,286047003.6,N
1551563236.0,286047003.6,N
1551563255.8,286047005.7,N
1551563275.7,286047002.0,N
1551563295.5,286047000.6,N
1551563315.3,286046998.2,N
1551563335.2,286046999.8,N
1551563355.4,286047002.5,N
1551563375.3,286047004.2,N
1551563395.1,286047005.8,N
1551563415.8,286047005.8,N
1551563435.7,286047005.9,N
1551563455.5,286047001.8,N
1551563475.4,286047002.1,N
1551563495.2,286047002.3,N
1551563515.0,286046998.1,N
1551563515.9,286046998.1,N
1551563535.8,286047000.4,N
1551563555.6,286047000.1,N
1551563575.4,286047001.6,N
1551563595.3,286047003.0,N
1551563615.1,286047001.6,N
1551563635.9,286047002.6,N
1551563655.7,286046998.1,N
1551563675.5,286047000.3,N
1551563695.4,286047000.1,N
1551563715.2,286046998.5,N
1551563735.0,286047000.5,N
1551563735.9,286047000.5,N
1551563755.8,286047002.3,N
1551563775.6,286047002.6,N
1551563795.5,286047003.7,N
1551563815.3,286047005.8,N
1551563835.1,286047003.6,N
1551563855.9,286047004.2,N
1551563875.7,286047003.8,N
1551563895.5,286047003.3,N
1551563915.4,286047003.1,N
1551563935.2,286047004.1,N
1551563955.1,286047003.5,N
1551563956.0,286047003.5,N
1551563975.8,286047007.6,Y
1551563995.6,286047004.2,P
